Time,TemperatureF,DewpointF,PressureIn,WindDirection,WindDirectionDegrees,WindSpeedMPH,WindSpeedGustMPH,Humidity,HourlyPrecipIn,Conditions,Clouds,dailyrainin,SolarRadiationWatts/m^2,SoftwareType,DateUTC
2013-05-18 00:01:00,58.0,58.0,-100.00,NE,45,4.0,5.0,100,0.00,,,0.08,0.000000,,2013-05-18 04:01:00,
2013-05-18 00:33:00,58.0,58.0,-100.00,NE,45,4.0,5.0,100,0.00,,,0.08,0.000000,,2013-05-18 04:33:00,
2013-05-18 00:43:00,58.0,58.0,-100.00,NE,45,4.0,5.0,100,0.00,,,0.08,0.000000,,2013-05-18 04:43:00,
2013-05-18 00:53:00,58.0,58.0,-100.00,NE,45,4.0,5.0,100,0.00,,,0.08,0.000000,,2013-05-18 04:53:00,
2013-05-18 01:01:00,57.0,57.0,-100.00,ENE,78,1.0,4.0,100,0.00,,,0.08,0.000000,,2013-05-18 05:01:00,
2013-05-18 01:22:00,57.0,57.0,-100.00,ENE,78,1.0,4.0,100,0.00,,,0.08,0.000000,,2013-05-18 05:22:00,
2013-05-18 01:32:00,57.0,57.0,-100.00,ENE,78,1.0,4.0,100,0.00,,,0.08,0.000000,,2013-05-18 05:32:00,
2013-05-18 01:42:00,57.0,57.0,-100.00,ENE,78,1.0,4.0,100,0.00,,,0.08,0.000000,,2013-05-18 05:42:00,
2013-05-18 01:52:00,57.0,57.0,-100.00,ENE,78,1.0,4.0,100,0.00,,,0.08,0.000000,,2013-05-18 05:52:00,
2013-05-18 02:01:00,57.0,57.0,-100.00,East,87,1.0,3.0,100,0.00,,,0.08,0.000000,,2013-05-18 06:01:00,
2013-05-18 02:32:00,57.0,57.0,-100.00,East,87,1.0,3.0,100,0.00,,,0.08,0.000000,,2013-05-18 06:32:00,
2013-05-18 02:42:00,57.0,57.0,-100.00,East,87,1.0,3.0,100,0.00,,,0.08,0.000000,,2013-05-18 06:42:00,
2013-05-18 02:52:00,57.0,57.0,-100.00,East,87,1.0,3.0,100,0.00,,,0.08,0.000000,,2013-05-18 06:52:00,
2013-05-18 03:01:00,57.0,57.0,-100.00,South,179,3.0,6.0,100,0.00,,,0.08,0.000000,,2013-05-18 07:01:00,
2013-05-18 03:32:00,57.0,57.0,-100.00,South,179,3.0,6.0,100,0.00,,,0.08,0.000000,,2013-05-18 07:32:00,
2013-05-18 03:43:00,57.0,57.0,-100.00,South,179,3.0,6.0,100,0.00,,,0.08,0.000000,,2013-05-18 07:43:00,
2013-05-18 03:53:00,57.0,57.0,-100.00,South,179,3.0,6.0,100,0.00,,,0.08,0.000000,,2013-05-18 07:53:00,
2013-05-18 04:01:00,56.0,56.0,-100.00,NE,45,2.0,4.0,100,0.00,,,0.08,0.000000,,2013-05-18 08:01:00,
2013-05-18 04:33:00,56.0,56.0,-100.00,NE,45,2.0,4.0,100,0.00,,,0.08,0.000000,,2013-05-18 08:33:00,
2013-05-18 04:42:00,56.0,56.0,-100.00,NE,45,2.0,4.0,100,0.00,,,0.08,0.000000,,2013-05-18 08:42:00,
2013-05-18 04:52:00,56.0,56.0,-100.00,NE,45,2.0,4.0,100,0.00,,,0.08,0.000000,,2013-05-18 08:52:00,
2013-05-18 05:01:00,57.0,57.0,-100.00,NE,52,2.0,3.0,100,0.00,,,0.08,0.000000,,2013-05-18 09:01:00,
2013-05-18 05:33:00,57.0,57.0,-100.00,NE,52,2.0,3.0,100,0.00,,,0.08,0.000000,,2013-05-18 09:33:00,
2013-05-18 05:43:00,57.0,57.0,-100.00,NE,52,2.0,3.0,100,0.00,,,0.08,0.000000,,2013-05-18 09:43:00,
2013-05-18 05:53:00,57.0,57.0,-100.00,NE,52,2.0,3.0,100,0.00,,,0.08,0.000000,,2013-05-18 09:53:00,
2013-05-18 06:01:00,58.0,58.0,-100.00,ESE,117,2.0,4.0,100,0.00,,,0.08,0.000000,,2013-05-18 10:01:00,
2013-05-18 06:23:00,58.0,58.0,-100.00,ESE,117,2.0,4.0,100,0.00,,,0.08,0.000000,,2013-05-18 10:23:00,
2013-05-18 06:33:00,58.0,58.0,-100.00,ESE,117,2.0,4.0,100,0.00,,,0.08,0.000000,,2013-05-18 10:33:00,
2013-05-18 06:42:00,58.0,58.0,-100.00,ESE,117,2.0,4.0,100,0.00,,,0.08,0.000000,,2013-05-18 10:42:00,
2013-05-18 06:53:00,58.0,58.0,-100.00,ESE,117,2.0,4.0,100,0.00,,,0.08,0.000000,,2013-05-18 10:53:00,
2013-05-18 07:01:00,56.0,56.0,-100.00,South,186,1.0,3.0,100,0.01,,,0.09,15.000000,,2013-05-18 11:01:00,
2013-05-18 07:33:00,56.0,56.0,-100.00,South,186,1.0,3.0,100,0.01,,,0.09,15.000000,,2013-05-18 11:33:00,
2013-05-18 07:42:00,56.0,56.0,-100.00,South,186,1.0,3.0,100,0.01,,,0.09,15.000000,,2013-05-18 11:42:00,
2013-05-18 07:52:00,56.0,56.0,-100.00,South,186,1.0,3.0,100,0.01,,,0.09,15.000000,,2013-05-18 11:52:00,
2013-05-18 08:01:00,58.0,58.0,-100.00,ESE,115,2.0,5.0,100,0.00,,,0.09,34.000000,,2013-05-18 12:01:00,
2013-05-18 08:33:00,58.0,58.0,-100.00,ESE,115,2.0,5.0,100,0.00,,,0.09,34.000000,,2013-05-18 12:33:00,
2013-05-18 08:42:00,58.0,58.0,-100.00,ESE,115,2.0,5.0,100,0.00,,,0.09,34.000000,,2013-05-18 12:42:00,
2013-05-18 08:52:00,58.0,58.0,-100.00,ESE,115,2.0,5.0,100,0.00,,,0.09,34.000000,,2013-05-18 12:52:00,
2013-05-18 09:01:00,58.0,58.0,-100.00,SE,129,2.0,5.0,100,0.00,,,0.09,80.000000,,2013-05-18 13:01:00,
2013-05-18 09:33:00,58.0,58.0,-100.00,SE,129,2.0,5.0,100,0.00,,,0.09,80.000000,,2013-05-18 13:33:00,
2013-05-18 09:43:00,58.0,58.0,-100.00,SE,129,2.0,5.0,100,0.00,,,0.09,80.000000,,2013-05-18 13:43:00,
2013-05-18 09:53:00,58.0,58.0,-100.00,SE,129,2.0,5.0,100,0.00,,,0.09,80.000000,,2013-05-18 13:53:00,
2013-05-18 10:01:00,59.0,59.0,-100.00,South,184,4.0,10.0,100,0.00,,,0.09,157.000000,,2013-05-18 14:01:00,
2013-05-18 10:33:00,59.0,59.0,-100.00,South,184,4.0,10.0,100,0.00,,,0.09,157.000000,,2013-05-18 14:33:00,
2013-05-18 10:42:00,59.0,59.0,-100.00,South,184,4.0,10.0,100,0.00,,,0.09,157.000000,,2013-05-18 14:42:00,
2013-05-18 10:54:00,59.0,59.0,-100.00,South,184,4.0,10.0,100,0.00,,,0.09,157.000000,,2013-05-18 14:54:00,
2013-05-18 11:01:00,61.0,61.0,-100.00,South,185,3.0,8.0,100,0.00,,,0.09,196.000000,,2013-05-18 15:01:00,
2013-05-18 11:33:00,61.0,61.0,-100.00,South,185,3.0,8.0,100,0.00,,,0.09,196.000000,,2013-05-18 15:33:00,
2013-05-18 11:43:00,61.0,61.0,-100.00,South,185,3.0,8.0,100,0.00,,,0.09,196.000000,,2013-05-18 15:43:00,
2013-05-18 11:54:00,61.0,61.0,-100.00,South,185,3.0,8.0,100,0.00,,,0.09,196.000000,,2013-05-18 15:54:00,
2013-05-18 12:01:00,62.0,62.0,-100.00,South,189,4.0,11.0,99,0.00,,,0.09,228.000000,,2013-05-18 16:01:00,
2013-05-18 12:33:00,62.0,62.0,-100.00,South,189,4.0,11.0,99,0.00,,,0.09,228.000000,,2013-05-18 16:33:00,
2013-05-18 12:42:00,62.0,62.0,-100.00,South,189,4.0,11.0,99,0.00,,,0.09,228.000000,,2013-05-18 16:42:00,
2013-05-18 12:52:00,62.0,62.0,-100.00,South,189,4.0,11.0,99,0.00,,,0.09,228.000000,,2013-05-18 16:52:00,
2013-05-18 13:01:00,62.0,61.0,-100.00,South,190,3.0,9.0,97,0.00,,,-99.99,182.000000,,2013-05-18 17:01:00,
2013-05-18 13:33:00,62.0,61.0,-100.00,South,190,3.0,9.0,97,0.00,,,-99.99,182.000000,,2013-05-18 17:33:00,
2013-05-18 13:42:00,62.0,61.0,-100.00,South,190,3.0,9.0,97,0.00,,,-99.99,182.000000,,2013-05-18 17:42:00,
2013-05-18 13:52:00,62.0,61.0,-100.00,South,190,3.0,9.0,97,0.00,,,-99.99,182.000000,,2013-05-18 17:52:00,
2013-05-18 14:01:00,66.0,62.0,-100.00,SSW,194,4.0,11.0,88,0.00,,,0.09,509.000000,,2013-05-18 18:01:00,
2013-05-18 14:32:00,66.0,62.0,-100.00,SSW,194,4.0,11.0,88,0.00,,,0.09,509.000000,,2013-05-18 18:32:00,
2013-05-18 14:42:00,66.0,62.0,-100.00,SSW,194,4.0,11.0,88,0.00,,,0.09,509.000000,,2013-05-18 18:42:00,
2013-05-18 14:52:00,66.0,62.0,-100.00,SSW,194,4.0,11.0,88,0.00,,,0.09,509.000000,,2013-05-18 18:52:00,
2013-05-18 15:01:00,68.0,60.0,-100.00,South,182,4.0,11.0,76,0.00,,,0.09,633.000000,,2013-05-18 19:01:00,
2013-05-18 15:32:00,68.0,60.0,-100.00,South,182,4.0,11.0,76,0.00,,,0.09,633.000000,,2013-05-18 19:32:00,
2013-05-18 15:42:00,68.0,60.0,-100.00,South,182,4.0,11.0,76,0.00,,,0.09,633.000000,,2013-05-18 19:42:00,
2013-05-18 15:52:00,68.0,60.0,-100.00,South,182,4.0,11.0,76,0.00,,,0.09,633.000000,,2013-05-18 19:52:00,
2013-05-18 16:01:00,65.0,63.0,-100.00,ENE,70,2.0,7.0,92,0.00,,,0.09,227.000000,,2013-05-18 20:01:00,
2013-05-18 16:32:00,65.0,63.0,-100.00,ENE,70,2.0,7.0,92,0.00,,,0.09,227.000000,,2013-05-18 20:32:00,
2013-05-18 16:42:00,65.0,63.0,-100.00,ENE,70,2.0,7.0,92,0.00,,,0.09,227.000000,,2013-05-18 20:42:00,
2013-05-18 16:52:00,65.0,63.0,-100.00,ENE,70,2.0,7.0,92,0.00,,,0.09,227.000000,,2013-05-18 20:52:00,
2013-05-18 17:01:00,63.0,61.0,-100.00,South,186,6.0,14.0,92,0.01,,,0.10,181.000000,,2013-05-18 21:01:00,
2013-05-18 17:22:00,63.0,61.0,-100.00,South,186,6.0,14.0,92,0.01,,,0.10,181.000000,,2013-05-18 21:22:00,
2013-05-18 17:33:00,63.0,61.0,-100.00,South,186,6.0,14.0,92,0.01,,,0.10,181.000000,,2013-05-18 21:33:00,
2013-05-18 17:44:00,63.0,61.0,-100.00,South,186,6.0,14.0,92,0.01,,,0.10,181.000000,,2013-05-18 21:44:00,
2013-05-18 17:53:00,63.0,61.0,-100.00,South,186,6.0,14.0,92,0.01,,,0.10,181.000000,,2013-05-18 21:53:00,
2013-05-18 18:01:00,65.0,63.0,-100.00,SE,128,3.0,10.0,93,0.01,,,0.11,205.000000,,2013-05-18 22:01:00,
2013-05-18 18:23:00,65.0,63.0,-100.00,SE,128,3.0,10.0,93,0.01,,,0.11,205.000000,,2013-05-18 22:23:00,
2013-05-18 18:33:00,65.0,63.0,-100.00,SE,128,3.0,10.0,93,0.01,,,0.11,205.000000,,2013-05-18 22:33:00,
2013-05-18 18:42:00,65.0,63.0,-100.00,SE,128,3.0,10.0,93,0.01,,,0.11,205.000000,,2013-05-18 22:42:00,
2013-05-18 18:53:00,65.0,63.0,-100.00,SE,128,3.0,10.0,93,0.01,,,0.11,205.000000,,2013-05-18 22:53:00,
2013-05-18 19:01:00,65.0,61.0,-100.00,South,185,3.0,6.0,86,0.00,,,0.06,164.000000,,2013-05-18 23:01:00,
2013-05-18 19:32:00,65.0,61.0,-100.00,South,185,3.0,6.0,86,0.00,,,0.06,164.000000,,2013-05-18 23:32:00,
2013-05-18 19:42:00,65.0,61.0,-100.00,South,185,3.0,6.0,86,0.00,,,0.06,164.000000,,2013-05-18 23:42:00,
2013-05-18 19:53:00,65.0,61.0,-100.00,South,185,3.0,6.0,86,0.00,,,0.06,164.000000,,2013-05-18 23:53:00,
2013-05-18 20:01:00,63.0,60.0,-100.00,South,181,5.0,16.0,91,0.00,,,0.05,73.000000,,2013-05-19 00:01:00,
2013-05-18 20:32:00,63.0,60.0,-100.00,South,181,5.0,16.0,91,0.00,,,0.05,73.000000,,2013-05-19 00:32:00,
2013-05-18 20:42:00,63.0,60.0,-100.00,South,181,5.0,16.0,91,0.00,,,0.05,73.000000,,2013-05-19 00:42:00,
2013-05-18 20:52:00,63.0,60.0,-100.00,South,181,5.0,16.0,91,0.00,,,0.05,73.000000,,2013-05-19 00:52:00,
2013-05-18 21:01:00,60.0,60.0,-100.00,SSW,195,5.0,13.0,100,0.00,,,-99.99,3.000000,,2013-05-19 01:01:00,
2013-05-18 21:22:00,60.0,60.0,-100.00,SSW,195,5.0,13.0,100,0.00,,,-99.99,3.000000,,2013-05-19 01:22:00,
2013-05-18 21:32:00,60.0,60.0,-100.00,SSW,195,5.0,13.0,100,0.00,,,-99.99,3.000000,,2013-05-19 01:32:00,
2013-05-18 21:42:00,60.0,60.0,-100.00,SSW,195,5.0,13.0,100,0.00,,,-99.99,3.000000,,2013-05-19 01:42:00,
2013-05-18 21:52:00,60.0,60.0,-100.00,SSW,195,5.0,13.0,100,0.00,,,-99.99,3.000000,,2013-05-19 01:52:00,
2013-05-18 22:01:00,59.0,59.0,-100.00,SSW,207,3.0,9.0,100,0.00,,,0.05,0.000000,,2013-05-19 02:01:00,
2013-05-18 22:22:00,59.0,59.0,-100.00,SSW,207,3.0,9.0,100,0.00,,,0.05,0.000000,,2013-05-19 02:22:00,
2013-05-18 22:32:00,59.0,59.0,-100.00,SSW,207,3.0,9.0,100,0.00,,,0.05,0.000000,,2013-05-19 02:32:00,
2013-05-18 22:42:00,59.0,59.0,-100.00,SSW,207,3.0,9.0,100,0.00,,,0.05,0.000000,,2013-05-19 02:42:00,
2013-05-18 22:52:00,59.0,59.0,-100.00,SSW,207,3.0,9.0,100,0.00,,,0.05,0.000000,,2013-05-19 02:52:00,
2013-05-18 23:01:00,59.0,59.0,-100.00,South,191,7.0,13.0,100,0.00,,,0.03,0.000000,,2013-05-19 03:01:00,
2013-05-18 23:33:00,59.0,59.0,-100.00,South,191,7.0,13.0,100,0.00,,,0.03,0.000000,,2013-05-19 03:33:00,
2013-05-18 23:43:00,59.0,59.0,-100.00,South,191,7.0,13.0,100,0.00,,,0.03,0.000000,,2013-05-19 03:43:00,
2013-05-18 23:53:00,59.0,59.0,-100.00,South,191,7.0,13.0,100,0.00,,,0.03,0.000000,,2013-05-19 03:53:00,